Location: Newark
(58.8333°N, 23.5833°E)
Time: 08:02:58
(UTC+00:00)

A-11 Canister half - Pass Details

Date: 22 November 2019
Orbit: 1515 x 1685 km, 47.2° (Epoch: 12 December)

Event Time Altitude Azimuth Distance (km) Brightness Sun altitude
Rises 16:57:41 0° 237° (WSW) 4,897 12.6 -23.1°
Reaches altitude 10° 17:01:03 10° 231° (SW) 3,925 11.8 -23.5°
Maximum altitude 17:10:10 41° 166° (SSE) 2,303 9.7 -24.7°
Enters shadow 17:13:39 32° 128° (SE) 2,612 9.7 -25.1°
Drops below altitude 10° 17:19:19 10° 102° (ESE) 3,943 - -25.9°
Sets 17:22:42 0° 95° (E) 4,921 - -26.3°
